Regional Weather Roundup
Issued by NWS Pendleton, OR

Home | Current Version | Previous Version | Text Only | Print | Product List | Glossary On
Versions: 1 2 3 4 5 6 7 8 9 10 11 12 13 14 15 16 17 18 19 20 21 22 23 24 25 26 27 28 29 30 31 32 33 34 35 36 37 38 39 40 41 42 43 44 45 46 47 48 49 50
000
ASUS46 KPDT 011825
RWRPDT
PENDLETON REGIONAL WEATHER ROUNDUP
NATIONAL WEATHER SERVICE PENDLETON OREGON
1100 AM PDT TUE SEP 1 2015

NOTE: FAIR INDICATES FEW OR NO CLOUDS BELOW 12,000 FEET WITH NO
SIGNIFICANT WEATHER AND/OR OBSTRUCTIONS TO VISIBILITY.

# INDICATES UNOFFICIAL STATION AND DATA

WAZ520-011910-
EAST SLOPES OF WASHINGTON CASCADES

CITY            SKY/WX      TMP DP  RH  WIND    PRES   REMARKS
#BULLFROG 2SW   N/A         60  47  62  NW5     27.49F
#BUMPING DAM    N/A         54  N/A N/A S2      N/A
#CLE ELUM HS    N/A         63  47  56  CALM    29.84F
#CLE ELUM LAKE  N/A         60  48  64  W1      29.79F
#CLIFFDEL 2NW   N/A         59  46  62  CALM    N/A
#GLENWOOD       N/A         65  55  70  S7      29.84F
#MANASTASH CYN  N/A         62  42  48  N1      29.87F
#NELSON         N/A         62  52  70  CALM    29.83F
#NELSON 3SW     N/A         58  50  75  CALM    30.02F
#NILE           N/A         62  46  56  CALM    29.12F
#RONALD 2NW     N/A         61  39  44  CALM    29.77F
#SNOWDEN        N/A         61  36  39  NW5     N/A
#TEANAWAY 4NE   N/A         64  50  60  CALM    N/A
#TROUT LAKE 1NE N/A         63  49  60  W7      29.86F
$$

WAZ521-011910-
SIMCOE HIGHLANDS

CITY            SKY/WX      TMP DP  RH  WIND    PRES   REMARKS
#BICKLETON HS   N/A         62  40  44  SW5     N/A
#CENTERVILLE 4W N/A         66  49  54  CALM    29.65F
#CENTERVILLE 1SWN/A         65  48  54  W9      29.81F
#GOLDENDALE     N/A         66  49  54  W9      N/A
#GOLDENDALE 1NE N/A         65  37  35  SW3     N/A
#GOODNOE HILLS  N/A         70  50  49  W13     N/A
#LYLE 6NE       N/A         65  50  58  S2      29.83F
$$

WAZ026-011910-
KITTITAS VALLEY

CITY            SKY/WX      TMP DP  RH  WIND    PRES   REMARKS
ELLENSBURG AP   MOCLDY      73  45  37  VRB5    29.86F
6HR MIN TEMP:   47; 6HR MAX TEMP:   73;

#ELLENSBURG CWU N/A         69  48  47  CALM    29.78F
#ELLENSBURG 3NE N/A         66  48  52  N1      29.87F
#ELLENSBURG 1E  N/A         67  50  54  CALM    N/A
#KITTITAS 4N    N/A         68  46  45  N6      29.87F
#KITTITAS 3S    N/A         65  50  58  CALM    29.81F
#THORP 6N       N/A         63  48  58  CALM    29.83F
$$

WAZ027-011910-
YAKIMA VALLEY

CITY            SKY/WX      TMP DP  RH  WIND    PRES   REMARKS
SUNNYSIDE AP    PTCLDY      70  49  47  E5      29.86F
YAKIMA AIRPORT  PTCLDY      71  47  42  VRB5    29.87F
6HR MIN TEMP:   47; 6HR MAX TEMP:   71;

YAKIMA-VAGABOND SUNNY       69  43  39  S6      29.86F
6HR MIN TEMP:   49; 6HR MAX TEMP:   69;

#DONALD 2NE     N/A         79  30  17  CALM    28.71F
#GRANDVIEW      N/A         72  47  41  CALM    29.85F
#MABTON         N/A         71  52  51  NE2     29.85F
#NACHES 2SW     N/A         68  51  55  SE2     29.88F
#OUTLOOK DOT    N/A         N/A N/A N/A E5      N/A
#SELAH 8E       N/A         70  43  38  W7      N/A
#TERRACE HTS    N/A         68  50  53  SE1     29.79F
#TOPPENISH      N/A         70  49  47  SW5     29.75F
#WAPATO 4NE     N/A         79  30  17  CALM    28.71F
#W YAKIMA       N/A         68  49  51  NE3     29.81F
#WHITE SWAN 5E  N/A         70  52  53  E2      29.82F
#WILEY CITY 3W  N/A         69  42  37  E1      29.83F
$$

WAZ028-011910-
LOWER COLUMBIA BASIN...WASHINGTON

CITY            SKY/WX      TMP DP  RH  WIND    PRES   REMARKS
HANFORD         MOSUNNY     73  41  31  SW5     29.85F
PASCO           SUNNY       73  48  41  SW12    29.87F
6HR MIN TEMP:   59; 6HR MAX TEMP:   73;

#BENTON CITY    N/A         69  48  47  SW2     29.75F
#CONNELL 5N     N/A         70  49  47  SW3     29.84F
#CONNELL 5NW    N/A         68  52  57  S7      29.81F
#ELTOPIA 6NW    N/A         67  52  59  S8      28.85S
#KAHLOTUS       N/A         69  48  47  W17     29.84S
#KENNEWICK      N/A         60  47  62  NW5     27.49F
#KENNEWICK 3S   N/A         70  52  53  N2      29.86S
#PASCO-BROADMOORN/A         74  49  41  SE6     29.74F
#PATERSON       N/A         71  52  51  SW14    29.84F
#PROSSER        N/A         71  43  36  S5      29.83F
#SAGEMOOR 2W    N/A         69  51  53  S2      29.70F
#TOUCHET 2S     N/A         74  52  46  W7      29.85F
#WEST PASCO     N/A         73  54  51  SW5     29.83F
$$

WAZ029-011910-
FOOTHILLS OF THE BLUES...WASHINGTON

CITY            SKY/WX      TMP DP  RH  WIND    PRES   REMARKS
WALLA WALLA AP  SUNNY       71  48  44  SW14    29.90F
6HR MIN TEMP:   60; 6HR MAX TEMP:   71;

#DAYTON SCHOOL  N/A         67  44  43  NE3     29.91F
#LOWDEN 2SE     N/A         73  52  48  SW5     29.85F
#PLEASANT VIEW 1N/A         69  46  44  SE16G26 29.87F
#PRESCOTT       N/A         71  51  49  SW5     29.85F
#SUDBURY        N/A         74  N/A N/A CALM    N/A
#WHITMAN COLLEGEN/A         68  51  55  S12     29.91F
#WAITSBURG 8N   N/A         68  28  22  S9      29.74S
#WALLA WALLA U  N/A         71  52  51  CALM    29.86F
#WHITMAN MISSIONN/A         71  51  49  SW6     29.87F
$$

WAZ030-011910-
BLUE MOUNTAINS...WASHINGTON

CITY            SKY/WX      TMP DP  RH  WIND    PRES   REMARKS
#SKI BLUEWOOD   N/A         63  33  32  S2      29.96S
$$

ORZ009-041-WAZ024-011910-
COLUMBIA RIVER GORGE

CITY            SKY/WX      TMP DP  RH  WIND    PRES   REMARKS
THE DALLES AP   SUNNY       72  49  44  SE5     29.87F
6HR MIN TEMP:   57; 6HR MAX TEMP:   72;

#ARLINGTON AIRPON/A         70  50  49  W15     N/A
#MOSIER 1S      N/A         70  40  34  N13     29.90F

$$

ORZ510-011910-
NORTH CENTRAL OREGON

CITY            SKY/WX      TMP DP  RH  WIND    PRES   REMARKS
#CHENOWITH 1W   N/A         64  48  56  W8      N/A
#DUFUR 9E       N/A         63  50  62  SW3     29.91F
#GRASS VALLEY 1SN/A         66  48  52  W9      29.89F
#MAUPIN SCHOOL  N/A         72  50  46  CALM    29.89F
#MORO SCHOOL    N/A         67  54  63  CALM    29.92F
#SHANIKO 4NW    N/A         63  42  46  S5      29.95
#TYGH VALLEY 2NEN/A         69  50  51  S1      29.85F
#WAPANITIA AIRPON/A         70  45  41  W2      29.85F
#WASCO 5NE      N/A         67  49  52  CALM    29.86F
$$

ORZ511-011910-
CENTRAL OREGON

CITY            SKY/WX      TMP DP  RH  WIND    PRES   REMARKS
BEND AIRPORT    SUNNY       70  28  21  SW6     29.94F
PRINEVILLE AP   SUNNY       68  37  32  E6      29.93F
REDMOND AIRPORT SUNNY       66  42  42  CALM    29.93F
6HR MIN TEMP:   38; 6HR MAX TEMP:   67;

#BEND 1SW       N/A         68  36  31  W3      N/A
#BEND-AWBREY    N/A         67  40  37  SE3     29.82F
#BEND-KIM LN    N/A         68  39  35  S5      29.92F
#CULVER         N/A         65  48  54  E1      29.89F
#LAKE BILLY CHINN/A         67   4   8  NE6     29.96F
#POWELL BUTTE 3EN/A         62  47  58  NW3     N/A
#POWELL BUTTE   N/A         69  47  45  SW1     29.57F
#PRINEVILLE 3N  N/A         69  47  45  E2      29.81F
#WARM SPRINGS   N/A         69  49  49  E1      29.89F

$$


ORZ509-011910-
EAST SLOPES OF OREGON CASCADES

CITY            SKY/WX      TMP DP  RH  WIND    PRES   REMARKS
#CAMP SHERMAN   N/A         74  42  32  CALM    29.79F
#LA PINE 4NW    N/A         63  42  46  CALM    29.91F
#SISTERS AIRPOR N/A         65  52  63  N2      30.17S
#SISTERS 3N     N/A         68  48  49  E3      29.96F
#SUNRIVER       N/A         66  39  37  SE3     29.73F
#TUMALO 3W      N/A         64  44  48  NE1     29.72F

$$

ORZ044-011910-
LOWER COLUMBIA BASIN...OREGON

CITY            SKY/WX      TMP DP  RH  WIND    PRES   REMARKS
HERMISTON       SUNNY       73  48  41  W7      29.88F
6HR MIN TEMP:   57; 6HR MAX TEMP:   73;

#BOARDMAN SCHOOLN/A         72  49  44  SW14    29.87F
#ECHO 8SW       N/A         71  49  46  SW7     29.89F
#IONE SCHOOL    N/A         68  46  45  SW7     29.86F
#IRRIGON 4NW    N/A         73  50  44  S14     N/A
#UMATILLA SCHOOLN/A         73  56  55  W3      29.89F
#UMATILLA       N/A         73  49  43  SW7     29.80S
$$

ORZ507-011910-
NORTHERN FOOTHILLS OF THE BLUES

CITY            SKY/WX      TMP DP  RH  WIND    PRES   REMARKS
PENDLETON AIRPT SUNNY       68  47  47  VRB5    29.90F
6HR MIN TEMP:   51; 6HR MAX TEMP:   69;

#ADAMS 3WNW     N/A         67  48  50  W6      29.86F
#ATHENA         N/A         65  49  56  SW5     29.88F
#CAYUSE         N/A         66  49  54  SW1     29.86F
#HELIX SCHOOL   N/A         66  48  52  SW8     29.85F
#HELIX 3N       N/A         65  47  52  SW9     29.89F
#HELIX 6SW      N/A         67  49  52  SW7     29.91F
#HOLDMAN 5SE    N/A         68  48  49  NW8     29.91F
#HOLDMAN 6E     N/A         67  47  49  N13     29.68F
#M-F GROVE ELEM N/A         71  46  41  SW3     29.88F
#M-FREEWATER 5SEN/A         69  53  57  SW2     29.90F
#PENDLETON DNTN N/A         72  46  39  CALM    29.93F
#PDT SUNRIDGE   N/A         70  49  47  W2      29.91F
#PENDLETON 7NW  N/A         74  53  48  W2      32.07S
#TUTUILLA       N/A         67  48  50  E1      29.89F
#UMAPINE 2E     N/A         71  55  57  SW3     29.86F
#WESTON SCHOOL  N/A         65  46  50  N1      29.84F

$$

ORZ508-011910-
SOUTHERN FOOTHILLS OF THE BLUES

CITY            SKY/WX      TMP DP  RH  WIND    PRES   REMARKS
#AJAX           N/A         63  42  46  CALM    29.86F
#CONDON SCHOOL  N/A         63  48  58  SW7     29.90F
#CONDON 5W      N/A         60  43  53  W7      29.91F
#FOSSIL SCHOOL  N/A         66  51  58  CALM    29.94S
#HEPPNER EOC    N/A         66  46  48  S1      29.79F
#HEPPNER 4NE    N/A         64  47  54  W6      29.85F
#LEXINGTON 2SE  N/A         71  48  44  NW3     29.88F
#OLEX 4N        N/A         67  49  52  SW6     29.88F
#RUGGS 5NE      N/A         67  46  47  SW3     30.07F
#RUGGS 2SW      N/A         66  46  48  CALM    29.86F

$$

ORZ502-503-011910-
BLUE MOUNTAINS

CITY            SKY/WX      TMP DP  RH  WIND    PRES   REMARKS
MEACHAM         SUNNY       66  43  43  NE5     29.95F
6HR MIN TEMP:   39; 6HR MAX TEMP:   67;

#HEPPNER 15SE   N/A         64  46  52  NW1     29.86F
#LONG CREEK HS  N/A         67  41  39  CALM    29.90F
#PIKES PEAK     N/A         58  47  67  SW9     27.99S
#TOLLGATE       N/A         58  41  53  SW3     29.87S
#TROY SCHOOL    N/A         70  52  53  CALM    29.68F
#UKIAH          N/A         67  44  43  E1      29.89F
#WESTON 4E      N/A         64  47  54  SW2     29.81F
$$

ORZ505-011910-
JOHN DAY BASIN

CITY            SKY/WX      TMP DP  RH  WIND    PRES   REMARKS
JOHN DAY        MOCLDY      71  41  34  CALM    29.95F
#JOHN DAY KJDY  N/A         70  63  78  NE1     30.16S
#MITCHELL       N/A         69  52  55  CALM    30.09F
#MITCHELL 8NW   N/A         65  45  48  CALM    30.02F
#MONUMENT HS    N/A         68  45  44  CALM    29.93F
#MT. VERNON 5SE N/A         68  44  42  N5      29.92F
#SPRAY SCHOOL   N/A         70  N/A N/A CALM    N/A
$$

ORZ506-011910-
OCHOCO AND JOHN DAY HIGHLANDS

CITY            SKY/WX      TMP DP  RH  WIND    PRES   REMARKS
#PINE MTN OBS   N/A         58  28  32  S3      N/A
#PRAIRIE CITY   N/A         69  47  45  CALM    29.83F
#SENECA         N/A         65  N/A N/A NW1     N/A
#SENECA 9NW     N/A         64  40  41  CALM    29.85F
$$

ORZ049-011910-
GRANDE RONDE VALLEY

CITY            SKY/WX      TMP DP  RH  WIND    PRES   REMARKS
LA GRANDE       PTCLDY      64  43  46  CALM    29.93F
#COVE           N/A         63  53  70  NE1     29.96F
#COVE SCHOOL    N/A         64  49  58  CALM    29.97F
#COVE 6NW       N/A         62  48  60  CALM    29.90F
#ELGIN 3N       N/A         70  47  44  E1      29.91F
#ELGIN 1E       N/A         65  47  52  CALM    N/A
#ISLAND CITY 4N N/A         68  57  68  S2      29.91F
#LA GRANDE ELEM N/A         68  49  51  SE2     29.95F
#UNION 1S       N/A         60  48  64  CALM    29.77F
$$

ORZ050-011910-
WALLOWA COUNTY

CITY            SKY/WX      TMP DP  RH  WIND    PRES   REMARKS
#ENTERPRISE HS  N/A         64  48  56  CALM    29.97F
#IMNAHA SCHOOL  N/A         73  47  40  N6      29.88F
#IMNAHA 10S     N/A         73  45  37  NE5     29.91F
#JOSEPH 3N      N/A         64  43  46  CALM    29.98F
#JOSEPH 3W      N/A         64  44  48  E1      29.82F
#LOSTINE        N/A         61  50  67  CALM    29.67F
#MT HOWARD 8000 N/A         55  35  47  SW8G25  30.15R
#PROMISE 1S     N/A         63  44  50  NE3     29.92F
#WALLOWA SCHOOL N/A         63  48  58  CALM    29.92F



$$



USA.gov is the U.S. government's official web portal to all federal, state and local government web resources and services.